Back to catalog

STARLINK-4433

AliveCommunicationsSSO
NORAD 53478·PAYLOAD·🇺🇸 United States

Launched Aug 12, 2022 from Vandenberg Space Force Base

Loading…

Next Passes (next 24 hours)

TLE

FreshSource: CelesTrak SupGP

Epoch: Sep 14, 2026, 20:54 UTC

1 53478C 22099P   26257.87131944  .00691880  00000+0  41163-1 0  2572
2 53478  97.2856  11.9172 0001882  95.7234  12.7543 15.10983753    11

Track STARLINK-4433 in real time with AllMySat

Download on the App Store